Location: Home
(42.5358°N, 72.7383°W)
Time: 00:52:47
(UTC-05:00)

CUTE-I - Visible Passes

Search period start: 25 January 2022 00:00
Search period end: 04 February 2022 00:00
Orbit: 810 x 825 km, 98.7° (Epoch: 24 January)

Date Brightness Start Highest point End Pass type
(mag) Time Alt. Az. Time Alt. Az. Time Alt. Az.
25 Jan ? 05:37:47 10° NNE 05:42:43 38° E 05:47:36 10° SSE visible
25 Jan ? 18:42:25 10° SW 18:45:41 16° W 18:48:58 10° NW visible
26 Jan ? 05:16:41 10° NE 05:20:59 24° E 05:25:14 10° SSE visible
26 Jan ? 18:19:31 10° SSW 18:23:54 25° W 18:28:17 10° NW visible
27 Jan ? 04:56:04 10° NE 04:59:10 16° E 05:02:15 10° SE visible
27 Jan ? 06:34:24 10° N 06:39:41 68° WNW 06:44:56 10° SSW visible
27 Jan ? 17:57:11 10° SSW 18:02:09 39° W 18:07:10 10° NNW visible
28 Jan ? 06:12:47 10° NNE 06:18:08 79° ESE 06:23:26 10° S visible
28 Jan ? 17:35:13 10° S 17:40:30 61° WSW 17:45:48 10° NNW visible
29 Jan ? 05:51:20 10° NNE 05:56:30 50° E 06:01:38 10° S visible
29 Jan ? 18:57:40 10° WSW 18:59:36 12° W 19:01:31 10° WNW visible
30 Jan ? 05:30:05 10° NNE 05:34:49 32° E 05:39:31 10° SSE visible
30 Jan ? 18:34:00 10° SW 18:37:45 19° W 18:41:31 10° NW visible
31 Jan ? 05:09:06 10° NE 05:13:03 21° E 05:16:58 10° SE visible
31 Jan ? 18:11:21 10° SSW 18:15:58 30° W 18:20:37 10° NW visible
01 Feb ? 04:48:49 10° ENE 04:51:12 13° E 04:53:36 10° ESE visible
01 Feb ? 06:26:31 10° NNE 06:31:50 80° WNW 06:37:08 10° SSW visible
01 Feb ? 17:49:10 10° S 17:54:16 46° W 17:59:24 10° NNW visible
02 Feb ? 06:04:57 10° NNE 06:10:15 67° ESE 06:15:31 10° S visible
02 Feb ? 17:27:18 10° S 17:32:38 72° WSW 17:37:59 10° NNW visible
03 Feb ? 05:43:34 10° NNE 05:48:36 43° E 05:53:37 10° S visible
03 Feb ? 18:48:51 10° WSW 18:51:38 14° W 18:54:25 10° WNW visible
